User: anonymous
Location: Unspecified
(0.0000°N, 0.0000°E)
Time: 18:56:24
(UTC+02:00)
Language:

ATLAS 3B CENTAUR R/B - Orbit

View from above orbital plane
View from above orbital plane
View from above satellite
View from above satellite

Ground track
Ground track

The orbit data is extracted from the following two-line orbital elements,

1 28118U 03057B   14238.50344476  .00050415  00000-0  11577-2 0  7138
2 28118 028.1584 343.7890 3851700 334.8234 010.5347 07.79390042201065
Epoch (UTC): 26 August 2014 12:04:57
Eccentricity: 0.3851700
inclination: 28.1584°
perigee height: 228 km
apogee height: 8506 km
right ascension of ascending node: 343.7890°
argument of perigee: 334.8234°
revolutions per day: 7.79390042
mean anomaly at epoch: 10.5347°
orbit number at epoch: 20106

The dashed part of the orbit path shows where the satellite is in the earth's shadow,  

DLR